Wahoo, NE

10:06 AM CDT on June 24, 2017 (GMT -0500)
Wahoo Municipal

Weather History for KAHQ - March, 2014

Change the Weather History Date:

Tuesday, March 4, 2014

  Actual Average Record
Temperature  
Mean Temperature 22 °F -  
Max Temperature 36 °F 43 °F 76 °F (1983)
Min Temperature 7 °F 22 °F -13 °F (1978)
Degree Days  
Heating Degree Days 44    
Moisture  
Dew Point 10 °F    
Average Humidity 59    
Maximum Humidity 75    
Minimum Humidity 39    
Precipitation  
Precipitation 0.00 in - - ()
Sea Level Pressure  
Sea Level Pressure 30.03 in    
Wind  
Wind Speed 7 mph (SE)    
Max Wind Speed 16 mph    
Max Gust Speed 21 mph    
Visibility 10 miles    
Events      
Averages and records for this station are not official NWS values.
T = Trace of Precipitation, MM = Missing Value Source: NWS Daily Summary

Daily Weather History Graph

Daily Weather History Graph

Search for Another Location

Airport or City:

Trip Planner

Search our weather history database for the weather conditions in past years. The results will help you decide how hot, cold, wet, or windy it might be!

Date:

Astronomy

Mar. 04, 2014 Rise Set
Actual Time 6:55 AM CST 6:20 PM CST
Civil Twilight 6:28 AM CST 6:48 PM CST
Nautical Twilight 5:56 AM CST 7:20 PM CST
Astronomical Twilight 5:24 AM CST 7:52 PM CST
Moon 8:40 AM CST (3/4) 10:32 PM CST (3/4)
Length of Visible Light 12h 19m
Length of Day
11h 24m
Waxing Crescent, 15% of the Moon is Illuminated
Mar 4
Waxing Crescent
Mar 8
First Quarter
Mar 16
Full
Mar 23
Last Quarter
Mar 30
New

Hourly Weather History & Observations

Time (CST) Temp. Windchill Dew Point Humidity Pressure Visibility Wind Dir Wind Speed Gust Speed Precip Events Conditions
12:15 AM 15.4 °F 4.6 °F 0.3 °F 51% 30.12 in 10.0 mi South 8.1 mph - N/A   Clear
12:35 AM 15.3 °F 4.4 °F -0.0 °F 51% 30.12 in 10.0 mi South 8.1 mph - N/A   Clear
12:55 AM 14.7 °F 3.8 °F -0.0 °F 52% 30.11 in 10.0 mi South 8.1 mph - N/A   Clear
1:15 AM 13.1 °F 0.9 °F 0.5 °F 57% 30.10 in 10.0 mi South 9.2 mph - N/A   Clear
1:35 AM 12.7 °F 0.4 °F 0.5 °F 58% 30.10 in 10.0 mi South 9.2 mph - N/A   Clear
1:55 AM 12.4 °F 2.0 °F 0.9 °F 60% 30.10 in 10.0 mi South 6.9 mph - N/A   Clear
2:15 AM 11.1 °F 0.4 °F 0.5 °F 62% 30.10 in 10.0 mi South 6.9 mph - N/A   Clear
2:35 AM 10.6 °F -0.2 °F 0.5 °F 64% 30.10 in 10.0 mi South 6.9 mph - N/A   Clear
3:00 AM 9.7 °F -0.1 °F 0.3 °F 66% 30.09 in 10.0 mi SSE 5.8 mph - N/A   Clear
3:15 AM 10.0 °F 0.4 °F 0.5 °F 65% 30.08 in 10.0 mi SSE 5.8 mph - N/A   Clear
3:35 AM 9.3 °F -1.7 °F -0.0 °F 66% 30.07 in 10.0 mi SSE 6.9 mph - N/A   Clear
3:55 AM 9.5 °F 1.2 °F 0.3 °F 66% 30.07 in 10.0 mi SSE 4.6 mph - N/A   Clear
4:15 AM 8.8 °F -2.4 °F -0.0 °F 67% 30.07 in 10.0 mi SSE 6.9 mph - N/A   Clear
4:35 AM 9.1 °F -0.7 °F 0.5 °F 68% 30.07 in 10.0 mi SSE 5.8 mph - N/A   Clear
4:55 AM 8.1 °F -2.0 °F 0.3 °F 71% 30.07 in 10.0 mi SE 5.8 mph - N/A   Clear
5:15 AM 8.4 °F -1.6 °F 0.5 °F 70% 30.06 in 10.0 mi SSE 5.8 mph - N/A   Clear
5:35 AM 8.6 °F 0.1 °F 0.7 °F 70% 30.06 in 10.0 mi SSE 4.6 mph - N/A   Clear
5:55 AM 8.6 °F 0.1 °F 0.7 °F 70% 30.07 in 10.0 mi South 4.6 mph - N/A   Clear
6:15 AM 8.2 °F 1.6 °F 0.5 °F 71% 30.06 in 10.0 mi SSE 3.5 mph - N/A   Clear
6:35 AM 7.9 °F 1.2 °F 0.5 °F 72% 30.07 in 10.0 mi SE 3.5 mph - N/A   Clear
6:55 AM 7.5 °F -1.1 °F 0.5 °F 73% 30.06 in 10.0 mi SE 4.6 mph - N/A   Clear
7:15 AM 7.9 °F -0.7 °F 1.0 °F 74% 30.06 in 10.0 mi SSE 4.6 mph - N/A   Clear
7:40 AM 9.7 °F 1.4 °F 2.1 °F 71% 30.06 in 10.0 mi SE 4.6 mph - N/A   Clear
7:55 AM 12.0 °F 1.5 °F 3.6 °F 69% 30.05 in 10.0 mi SE 6.9 mph - N/A   Clear
8:15 AM 14.9 °F 5.0 °F 3.7 °F 61% 30.04 in 10.0 mi SSE 6.9 mph - N/A   Clear
8:35 AM 15.8 °F 6.1 °F 3.9 °F 60% 30.05 in 10.0 mi South 6.9 mph - N/A   Clear
8:55 AM 16.2 °F 7.6 °F 3.6 °F 58% 30.04 in 10.0 mi South 5.8 mph - N/A   Clear
9:15 AM 18.7 °F 10.6 °F 5.4 °F 56% 30.05 in 10.0 mi South 5.8 mph - N/A   Clear
9:35 AM 20.1 °F 12.3 °F 4.8 °F 52% 30.04 in 10.0 mi SSW 5.8 mph - N/A   Clear
9:55 AM 21.2 °F 14.9 °F 5.4 °F 51% 30.04 in 10.0 mi SSW 4.6 mph - N/A   Clear
10:15 AM 22.6 °F - 6.1 °F 49% 30.04 in 10.0 mi Calm Calm - N/A   Clear
10:35 AM 23.9 °F - 7.0 °F 49% 30.03 in 10.0 mi Calm Calm - N/A   Clear
10:55 AM 25.2 °F 19.5 °F 8.4 °F 49% 30.03 in 10.0 mi SE 4.6 mph - N/A   Clear
11:15 AM 26.8 °F 19.3 °F 9.7 °F 49% 30.02 in 10.0 mi ESE 6.9 mph - N/A   Clear
11:35 AM 27.9 °F 20.6 °F 10.4 °F 48% 30.02 in 10.0 mi ESE 6.9 mph - N/A   Clear
11:55 AM 29.5 °F 21.8 °F 10.9 °F 46% 30.01 in 10.0 mi East 8.1 mph - N/A   Clear
12:15 PM 30.7 °F 22.6 °F 11.7 °F 45% 30.00 in 10.0 mi ESE 9.2 mph 17.3 mph N/A   Clear
12:35 PM 31.3 °F 21.1 °F 11.5 °F 44% 29.99 in 10.0 mi SE 13.8 mph - N/A   Scattered Clouds
12:55 PM 32.7 °F 26.4 °F 12.4 °F 43% 30.00 in 10.0 mi SSE 6.9 mph - N/A   Mostly Cloudy
1:15 PM 33.8 °F 23.5 °F 12.4 °F 41% 29.98 in 10.0 mi SE 16.1 mph 19.6 mph N/A   Scattered Clouds
1:35 PM 34.5 °F 26.7 °F 12.4 °F 40% 29.98 in 10.0 mi SSE 10.4 mph - N/A   Mostly Cloudy
1:55 PM 35.2 °F 25.8 °F 13.6 °F 41% 29.96 in 10.0 mi SE 15.0 mph 20.7 mph N/A   Mostly Cloudy
2:15 PM 36.1 °F 28.7 °F 13.5 °F 39% 29.95 in 10.0 mi SE 10.4 mph - N/A   Scattered Clouds
2:35 PM 35.8 °F 27.8 °F 13.8 °F 41% 29.95 in 10.0 mi SE 11.5 mph - N/A   Clear
2:55 PM 36.7 °F 27.6 °F 15.1 °F 41% 29.94 in 10.0 mi SE 15.0 mph - N/A   Clear
3:15 PM 36.9 °F 28.2 °F 14.9 °F 41% 29.94 in 10.0 mi SE 13.8 mph - N/A   Clear
3:35 PM 36.5 °F 29.7 °F 15.1 °F 42% 29.94 in 10.0 mi SE 9.2 mph 16.1 mph N/A   Scattered Clouds
3:55 PM 35.8 °F 28.3 °F 15.6 °F 44% 29.94 in 10.0 mi SE 10.4 mph 16.1 mph N/A   Overcast
4:15 PM 35.4 °F 27.3 °F 15.8 °F 45% 29.94 in 10.0 mi ESE 11.5 mph 17.3 mph N/A   Scattered Clouds
4:35 PM 35.6 °F 28.0 °F 16.3 °F 46% 29.94 in 10.0 mi ESE 10.4 mph - N/A   Clear
4:55 PM 35.6 °F 27.1 °F 17.1 °F 47% 29.93 in 10.0 mi ESE 12.7 mph - N/A   Clear
5:15 PM 36.1 °F 28.7 °F 18.0 °F 48% 29.93 in 10.0 mi East 10.4 mph - N/A   Scattered Clouds
5:35 PM 35.8 °F 28.3 °F 18.5 °F 50% 29.94 in 10.0 mi East 10.4 mph - N/A   Scattered Clouds
5:55 PM 33.8 °F 26.4 °F 18.9 °F 54% 29.94 in 10.0 mi East 9.2 mph - N/A   Scattered Clouds
6:15 PM 32.2 °F 25.0 °F 19.0 °F 58% 29.94 in 10.0 mi East 8.1 mph - N/A   Clear
6:35 PM 31.3 °F 24.7 °F 18.5 °F 59% 29.97 in 10.0 mi ENE 6.9 mph - N/A   Clear
6:55 PM 28.9 °F 21.9 °F 17.8 °F 63% 29.99 in 10.0 mi NE 6.9 mph - N/A   Clear
7:15 PM 27.5 °F 19.3 °F 17.8 °F 67% 29.99 in 10.0 mi ENE 8.1 mph - N/A   Clear
7:35 PM 27.3 °F 20.9 °F 17.6 °F 67% 30.00 in 10.0 mi ENE 5.8 mph - N/A   Clear
7:55 PM 28.0 °F 20.8 °F 18.5 °F 67% 30.00 in 10.0 mi NE 6.9 mph - N/A   Clear
8:15 PM 25.9 °F 18.2 °F 17.6 °F 71% 30.00 in 10.0 mi NE 6.9 mph - N/A   Clear
8:35 PM 27.3 °F 19.9 °F 18.5 °F 69% 30.00 in 10.0 mi ENE 6.9 mph - N/A   Clear
8:55 PM 27.3 °F 20.9 °F 18.3 °F 69% 30.00 in 10.0 mi ENE 5.8 mph - N/A   Clear
9:15 PM 27.1 °F 20.7 °F 18.5 °F 70% 30.01 in 10.0 mi NE 5.8 mph - N/A   Clear
9:35 PM 26.6 °F 20.0 °F 18.5 °F 71% 30.03 in 10.0 mi NE 5.8 mph - N/A   Clear
9:55 PM 26.8 °F 20.2 °F 19.6 °F 74% 30.05 in 10.0 mi North 5.8 mph - N/A   Scattered Clouds
10:15 PM 27.5 °F 20.2 °F 20.3 °F 74% 30.05 in 10.0 mi NNE 6.9 mph - N/A   Mostly Cloudy
10:35 PM 28.2 °F 20.2 °F 20.7 °F 73% 30.06 in 10.0 mi North 8.1 mph - N/A   Mostly Cloudy
10:55 PM 28.2 °F 20.2 °F 20.3 °F 72% 30.07 in 10.0 mi NNE 8.1 mph - N/A   Overcast
11:15 PM 27.5 °F 17.4 °F 20.1 °F 74% 30.06 in 10.0 mi NNE 11.5 mph - N/A   Overcast
11:35 PM 26.4 °F 16.0 °F 19.4 °F 75% 30.09 in 10.0 mi North 11.5 mph - N/A   Overcast
11:55 PM 25.7 °F 15.1 °F 18.9 °F 75% 30.09 in 10.0 mi North 11.5 mph - N/A   Overcast